FW1932 Weather Reports


time (UTC)temp
C
wind
direction
speed
KPH
gust
KPH
rain 1hr
cm
rain 24hr
cm
rain mn
cm
humidity
%
barometer
mb
20260903233004 20 226 0.0 0.0 0.00 0.00 0.00 71 1024.1
20260903231611 20 226 0.0 0.0 0.00 0.00 0.00 71 1024.1
20260903230110 20 226 0.0 0.0 0.00 0.00 0.00 67 1024.0
20260903224551 21 226 0.0 1.6 0.00 0.00 0.00 65 1024.1
20260903223102 21 141 0.0 1.6 0.00 0.00 0.00 63 1024.2
20260903221549 21 217 0.0 1.6 0.00 0.00 0.00 61 1024.1
20260903214546 22 182 0.0 0.0 0.00 0.00 0.00 60 1024.1
20260903213046 22 183 0.0 0.0 0.00 0.00 0.00 58 1024.3
20260903211546 22 176 0.0 0.0 0.00 0.00 0.00 58 1024.2
20260903210045 23 176 0.0 0.0 0.00 0.00 0.00 57 1024.3
20260903204546 23 176 0.0 0.0 0.00 0.00 0.00 57 1024.3
20260903203043 23 152 0.0 0.0 0.00 0.00 0.00 57 1024.4
20260903201544 23 146 0.0 1.6 0.00 0.00 0.00 58 1024.3
20260903200048 23 243 0.0 1.6 0.00 0.00 0.00 57 1024.2
20260903194548 23 242 0.0 1.6 0.00 0.00 0.00 56 1024.2
20260903193042 23 240 0.0 3.2 0.00 0.00 0.00 55 1024.1
20260903191554 24 86 0.0 3.2 0.00 0.00 0.00 54 1024.0
20260903190040 24 254 0.0 1.6 0.00 0.00 0.00 53 1024.1
20260903184541 25 254 0.0 1.6 0.00 0.00 0.00 52 1023.7
20260903183101 25 255 0.0 1.6 0.00 0.00 0.00 51 1023.7
20260903181540 25 248 0.0 3.2 0.00 0.00 0.00 51 1023.5
20260903180039 25 245 0.0 3.2 0.00 0.00 0.00 50 1023.4
20260903174538 26 226 1.6 6.4 0.00 0.00 0.00 49 1023.3
20260903173038 26 233 1.6 9.7 0.00 0.00 0.00 48 1023.3
20260903171537 26 234 1.6 6.4 0.00 0.00 0.00 48 1023.3
20260903170038 27 233 0.0 6.4 0.00 0.00 0.00 48 1023.4
20260903164535 27 99 1.6 9.7 0.00 0.00 0.00 46 1023.4
20260903163034 27 243 1.6 9.7 0.00 0.00 0.00 46 1023.2
20260903161546 28 176 6.4 11.3 0.00 0.00 0.00 44 1023.3
20260903160032 28 236 0.0 9.7 0.00 0.00 0.00 44 1023.4
20260903154531 29 222 3.2 6.4 0.00 0.00 0.00 42 1023.4
20260903153030 29 151 3.2 9.7 0.00 0.00 0.00 41 1023.5
20260903151530 29 243 1.6 12.9 0.00 0.00 0.00 42 1023.6
20260903150030 28 224 0.0 11.3 0.00 0.00 0.00 43 1023.4
20260903144529 29 233 0.0 8.0 0.00 0.00 0.00 42 1023.5
20260903143036 29 231 1.6 8.0 0.00 0.00 0.00 39 1023.6
20260903141526 30 95 0.0 8.0 0.00 0.00 0.00 39 1023.7
20260903140024 30 160 1.6 4.8 0.00 0.00 0.00 37 1023.8
20260903134527 29 251 1.6 11.3 0.00 0.00 0.00 37 1023.7
20260903133023 29 237 1.6 9.7 0.00 0.00 0.00 35 1023.8
20260903131523 29 231 1.6 9.7 0.00 0.00 0.00 37 1023.8
20260903130018 29 240 3.2 11.3 0.00 0.00 0.00 39 1023.7
20260903124526 28 245 3.2 12.9 0.00 0.00 0.00 38 1023.8
20260903123015 28 247 3.2 19.3 0.00 0.00 0.00 38 1023.9
20260903121532 28 264 4.8 12.9 0.00 0.00 0.00 41 1024.0
20260903120010 28 238 0.0 9.7 0.00 0.00 0.00 44 1024.3
20260903114509 27 246 8.0 16.1 0.00 0.00 0.00 42 1024.2
20260903113015 27 230 4.8 12.9 0.00 0.00 0.00 43 1024.6
20260903111507 27 231 3.2 11.3 0.00 0.00 0.00 43 1024.8
20260903110006 27 245 1.6 11.3 0.00 0.00 0.00 44 1024.8
20260903104504 26 240 4.8 16.1 0.00 0.00 0.00 44 1025.1
20260903103003 26 254 3.2 17.7 0.00 0.00 0.00 44 1025.0
20260903101559 26 238 0.0 8.0 0.00 0.00 0.00 46 1025.1
20260903100058 26 226 1.6 9.7 0.00 0.00 0.00 46 1025.4
20260903094606 25 245 1.6 6.4 0.00 0.00 0.00 51 1025.4
20260903093054 25 266 3.2 8.0 0.00 0.00 0.00 53 1025.5
20260903091557 24 224 1.6 6.4 0.00 0.00 0.00 55 1025.6
20260903090050 23 240 3.2 8.0 0.00 0.00 0.00 56 1025.5
20260903084548 23 239 0.0 4.8 0.00 0.00 0.00 58 1025.5
20260903083043 22 233 0.0 8.0 0.00 0.00 0.00 61 1025.6
20260903081547 21 231 4.8 9.7 0.00 0.00 0.00 63 1025.3
20260903080040 21 243 0.0 4.8 0.00 0.00 0.00 67 1025.8
20260903074534 20 237 1.6 8.0 0.00 0.00 0.00 71 1025.6
20260903073043 19 238 1.6 4.8 0.00 0.00 0.00 74 1025.4
20260903071529 18 253 0.0 3.2 0.00 0.00 0.00 78 1025.3
20260903070027 17 233 0.0 3.2 0.00 0.00 0.00 80 1025.2
20260903064527 16 271 0.0 1.6 0.00 0.00 0.00 85 1025.4
20260903063025 15 269 0.0 1.6 0.00 0.00 0.00 87 1025.4
20260903061525 15 269 0.0 0.0 0.00 0.00 0.00 88 1025.5
20260903060024 15 269 0.0 0.0 0.00 0.00 0.00 88 1025.6
20260903054523 14 269 0.0 0.0 0.00 0.00 0.00 89 1025.3
20260903053019 15 269 0.0 1.6 0.00 0.00 0.00 89 1025.2
20260903051519 15 269 0.0 1.6 0.00 0.00 0.00 88 1025.1
20260903050016 15 268 0.0 0.0 0.00 0.00 0.00 88 1024.9
20260903044517 15 269 0.0 1.6 0.00 0.00 0.00 87 1024.8
20260903043015 15 268 0.0 0.0 0.00 0.00 0.00 87 1024.8
20260903041515 15 268 0.0 1.6 0.00 0.00 0.00 86 1024.8
20260903040015 15 67 0.0 0.0 0.00 0.00 0.00 87 1024.6
20260903034519 15 67 0.0 1.6 0.00 0.00 0.00 86 1024.6
20260903033011 15 256 0.0 0.0 0.00 0.00 0.00 88 1024.7
20260903031510 15 257 0.0 0.0 0.00 0.00 0.00 87 1024.7
20260903030008 15 257 0.0 0.0 0.00 0.00 0.00 85 1024.8
20260903024505 15 257 0.0 0.0 0.00 0.00 0.00 84 1024.6
20260903023004 15 257 0.0 0.0 0.00 0.00 0.00 84 1024.7
20260903021503 15 256 0.0 0.0 0.00 0.00 0.00 83 1024.7
20260903020001 15 257 0.0 0.0 0.00 0.00 0.00 83 1024.8
20260903014601 15 257 0.0 0.0 0.00 0.00 0.00 83 1024.8
20260903013059 16 256 0.0 0.0 0.00 0.00 0.00 83 1024.9
20260903011600 16 255 0.0 0.0 0.00 0.00 0.00 84 1024.8
20260903010056 16 255 0.0 0.0 0.00 0.00 0.00 83 1024.7
20260903004601 16 255 0.0 0.0 0.00 0.00 0.00 82 1024.7
20260903003054 16 255 0.0 0.0 0.00 0.00 0.00 82 1024.7
20260903001551 16 255 0.0 0.0 0.00 0.00 0.00 81 1024.6
20260903000051 16 255 0.0 0.0 0.00 0.00 0.00 81 1024.5
20260902234548 16 255 0.0 0.0 0.00 0.00 0.00 80 1024.4